Location: Kitt Peak
(31.9514°N, 111.6156°W)
Time: 14:11:48
(UTC-07:00)

Tiangong - Visible Passes

Search period start: 24 January 2022 00:00
Search period end: 03 February 2022 00:00
Orbit: 383 x 386 km, 41.5° (Epoch: 23 January)

Date Brightness Start Highest point End Pass type
(mag) Time Alt. Az. Time Alt. Az. Time Alt. Az.
24 Jan 2.6 18:47:40 10° SSW 18:50:13 23° SE 18:51:27 18° ESE visible
25 Jan 1.0 19:24:01 10° WSW 19:27:06 80° WNW 19:27:06 80° WNW visible
26 Jan 1.5 18:24:25 10° SW 18:27:28 48° SSE 18:30:26 11° ENE visible
26 Jan 4.0 20:01:40 10° W 20:02:40 16° WNW 20:02:40 16° WNW visible
27 Jan 1.9 19:01:30 10° W 19:04:31 42° NNW 19:05:55 25° NNE visible
28 Jan 3.3 19:39:28 10° WNW 19:41:18 18° NNW 19:41:18 18° NNW visible
29 Jan 2.7 18:39:07 10° W 18:41:51 26° NNW 18:44:26 11° NE visible
30 Jan 3.3 19:17:12 10° NW 19:19:14 16° N 19:19:42 15° N visible
31 Jan 4.1 19:54:49 10° NNW 19:54:56 10° NNW 19:54:56 10° NNW visible
01 Feb 3.4 18:54:42 10° NW 18:56:33 14° N 18:57:57 12° NNE visible
02 Feb 3.4 19:31:48 10° NNW 19:33:10 16° N 19:33:10 16° N visible
